Location: Binningen
(47.7924°N, 8.7261°E)
Time: 16:19:25
(UTC+00:00)

SAR-Lupe-2 - Pass Details

Date: 17 May 2021
Orbit: 482 x 484 km, 98.1° (Epoch: 13 June)

Event Time Altitude Azimuth Distance (km) Brightness Sun altitude
Rises 23:05:29 0° 12° (NNE) 2,562 8.5 -22.6°
Reaches altitude 10° 23:07:33 10° 11° (NNE) 1,676 7.3 -22.6°
Enters shadow 23:10:53 72° 338° (NNW) 514 3.7 -22.6°
